Location: Chillicothe
(39.7950°N, 93.5520°W)
Time: 10:48:18
(UTC-06:00)

BEESAT - Pass Details

Date: 20 November 2019
Orbit: 700 x 709 km, 98.6° (Epoch: 10 December)

Event Time Altitude Azimuth Distance (km) Brightness Sun altitude
Rises 03:25:21 0° 115° (ESE) 3,080 ? -41.8°
Reaches altitude 10° 03:28:46 10° 89° (E) 2,166 ? -41.2°
Enters shadow 03:30:34 13° 67° (ENE) 1,962 ? -40.8°
